![]() |
EMODnet Physics ERDDAP
Easier access to scientific data |
log in|
Brought to you by EMODnet Physics |
| Dataset Title: | NDBC - Collection of dew point temperature (DEWT) TimeSeries - IN SITU MultiPointTimeSeriesObservation
|
| Institution: | NDBC (Dataset ID: TS_DEWT_NDBC) |
| Information: | Summary
| License
| FGDC
| ISO 19115
| Metadata
| Background
| Subset
| Data Access Form
| Make a graph
|
| Name | Last modified | Size | Description | |
|---|---|---|---|---|
| Parent Directory | - | - | ||
| 46108_TS_DEWT_012013.nc | 06-Dec-2024 03:57 | 448780 | ||
| 46108_TS_DEWT_012016.nc | 06-Dec-2024 04:00 | 449547 | ||
| 46108_TS_DEWT_012017.nc | 06-Dec-2024 04:03 | 448739 | ||
| 46108_TS_DEWT_012018.nc | 06-Dec-2024 04:05 | 418871 | ||
| 46108_TS_DEWT_012019.nc | 06-Dec-2024 04:08 | 450339 | ||
| 46108_TS_DEWT_012021.nc | 06-Dec-2024 04:12 | 448938 | ||
| 46108_TS_DEWT_012022.nc | 06-Dec-2024 04:14 | 447986 | ||
| 46108_TS_DEWT_012023.nc | 06-Dec-2024 04:18 | 450480 | ||
| 46108_TS_DEWT_022016.nc | 06-Dec-2024 04:00 | 2470699 | ||
| 46108_TS_DEWT_022017.nc | 06-Dec-2024 04:03 | 429680 | ||
| 46108_TS_DEWT_022018.nc | 06-Dec-2024 04:06 | 429674 | ||
| 46108_TS_DEWT_022019.nc | 06-Dec-2024 04:08 | 429686 | ||
| 46108_TS_DEWT_022021.nc | 06-Dec-2024 04:12 | 429692 | ||
| 46108_TS_DEWT_022022.nc | 06-Dec-2024 04:14 | 429693 | ||
| 46108_TS_DEWT_022023.nc | 06-Dec-2024 04:18 | 429648 | ||
| 46108_TS_DEWT_032016.nc | 06-Dec-2024 04:01 | 429688 | ||
| 46108_TS_DEWT_032017.nc | 06-Dec-2024 04:03 | 429695 | ||
| 46108_TS_DEWT_032018.nc | 06-Dec-2024 04:06 | 429686 | ||
| 46108_TS_DEWT_032019.nc | 06-Dec-2024 04:08 | 429672 | ||
| 46108_TS_DEWT_032021.nc | 06-Dec-2024 04:12 | 429695 | ||
| 46108_TS_DEWT_032022.nc | 06-Dec-2024 04:14 | 429688 | ||
| 46108_TS_DEWT_032023.nc | 06-Dec-2024 04:18 | 429687 | ||
| 46108_TS_DEWT_042015.nc | 06-Dec-2024 03:58 | 429698 | ||
| 46108_TS_DEWT_042016.nc | 06-Dec-2024 04:01 | 429699 | ||
| 46108_TS_DEWT_042017.nc | 06-Dec-2024 04:03 | 427872 | ||
| 46108_TS_DEWT_042018.nc | 06-Dec-2024 04:06 | 431370 | ||
| 46108_TS_DEWT_042019.nc | 06-Dec-2024 04:08 | 441777 | ||
| 46108_TS_DEWT_042021.nc | 06-Dec-2024 04:13 | 449622 | ||
| 46108_TS_DEWT_042022.nc | 06-Dec-2024 04:14 | 450017 | ||
| 46108_TS_DEWT_042023.nc | 06-Dec-2024 04:18 | 451312 | ||
| 46108_TS_DEWT_052011.nc | 06-Dec-2024 03:55 | 450258 | ||
| 46108_TS_DEWT_052012.nc | 06-Dec-2024 03:56 | 446107 | ||
| 46108_TS_DEWT_052015.nc | 06-Dec-2024 03:59 | 450035 | ||
| 46108_TS_DEWT_052016.nc | 06-Dec-2024 04:02 | 450743 | ||
| 46108_TS_DEWT_052017.nc | 06-Dec-2024 04:04 | 450238 | ||
| 46108_TS_DEWT_052018.nc | 06-Dec-2024 04:06 | 450300 | ||
| 46108_TS_DEWT_052019.nc | 06-Dec-2024 04:09 | 450485 | ||
| 46108_TS_DEWT_052021.nc | 06-Dec-2024 04:13 | 450058 | ||
| 46108_TS_DEWT_052022.nc | 06-Dec-2024 04:14 | 449599 | ||
| 46108_TS_DEWT_052023.nc | 06-Dec-2024 04:18 | 450029 | ||
| 46108_TS_DEWT_062011.nc | 06-Dec-2024 03:56 | 450909 | ||
| 46108_TS_DEWT_062012.nc | 06-Dec-2024 03:57 | 449366 | ||
| 46108_TS_DEWT_062015.nc | 06-Dec-2024 03:59 | 449962 | ||
| 46108_TS_DEWT_062016.nc | 06-Dec-2024 04:02 | 450517 | ||
| 46108_TS_DEWT_062017.nc | 06-Dec-2024 04:04 | 449598 | ||
| 46108_TS_DEWT_062018.nc | 06-Dec-2024 04:07 | 450327 | ||
| 46108_TS_DEWT_062019.nc | 06-Dec-2024 04:10 | 451494 | ||
| 46108_TS_DEWT_062022.nc | 06-Dec-2024 04:15 | 450201 | ||
| 46108_TS_DEWT_062023.nc | 06-Dec-2024 04:19 | 450633 | ||
| 46108_TS_DEWT_072011.nc | 06-Dec-2024 03:56 | 429675 | ||
| 46108_TS_DEWT_072012.nc | 06-Dec-2024 03:57 | 429678 | ||
| 46108_TS_DEWT_072013.nc | 06-Dec-2024 03:58 | 429696 | ||
| 46108_TS_DEWT_072015.nc | 06-Dec-2024 03:59 | 429688 | ||
| 46108_TS_DEWT_072016.nc | 06-Dec-2024 04:02 | 429677 | ||
| 46108_TS_DEWT_072017.nc | 06-Dec-2024 04:04 | 429693 | ||
| 46108_TS_DEWT_072018.nc | 06-Dec-2024 04:07 | 429673 | ||
| 46108_TS_DEWT_072019.nc | 06-Dec-2024 04:10 | 429679 | ||
| 46108_TS_DEWT_072022.nc | 06-Dec-2024 04:15 | 429646 | ||
| 46108_TS_DEWT_072023.nc | 06-Dec-2024 04:19 | 429686 | ||
| 46108_TS_DEWT_082011.nc | 06-Dec-2024 03:56 | 429687 | ||
| 46108_TS_DEWT_082013.nc | 06-Dec-2024 03:58 | 429694 | ||
| 46108_TS_DEWT_082015.nc | 06-Dec-2024 03:59 | 429690 | ||
| 46108_TS_DEWT_082016.nc | 06-Dec-2024 04:02 | 429687 | ||
| 46108_TS_DEWT_082017.nc | 06-Dec-2024 04:04 | 429698 | ||
| 46108_TS_DEWT_082018.nc | 06-Dec-2024 04:07 | 429692 | ||
| 46108_TS_DEWT_082019.nc | 06-Dec-2024 04:10 | 449270 | ||
| 46108_TS_DEWT_082020.nc | 06-Dec-2024 04:11 | 450922 | ||
| 46108_TS_DEWT_082021.nc | 06-Dec-2024 04:13 | 450062 | ||
| 46108_TS_DEWT_082022.nc | 06-Dec-2024 04:15 | 450009 | ||
| 46108_TS_DEWT_082023.nc | 06-Dec-2024 04:19 | 450973 | ||
| 46108_TS_DEWT_092011.nc | 06-Dec-2024 03:56 | 449897 | ||
| 46108_TS_DEWT_092012.nc | 06-Dec-2024 03:57 | 451334 | ||
| 46108_TS_DEWT_092013.nc | 06-Dec-2024 03:58 | 450631 | ||
| 46108_TS_DEWT_092015.nc | 06-Dec-2024 03:59 | 450834 | ||
| 46108_TS_DEWT_092016.nc | 06-Dec-2024 04:02 | 451063 | ||
| 46108_TS_DEWT_092017.nc | 06-Dec-2024 04:05 | 450716 | ||
| 46108_TS_DEWT_092018.nc | 06-Dec-2024 04:07 | 450817 | ||
| 46108_TS_DEWT_092019.nc | 06-Dec-2024 04:10 | 450281 | ||
| 46108_TS_DEWT_092021.nc | 06-Dec-2024 04:13 | 449786 | ||
| 46108_TS_DEWT_092022.nc | 06-Dec-2024 04:15 | 450369 | ||
| 46108_TS_DEWT_092023.nc | 06-Dec-2024 04:20 | 450762 | ||
| 46108_TS_DEWT_102011.nc | 06-Dec-2024 03:56 | 450922 | ||
| 46108_TS_DEWT_102012.nc | 06-Dec-2024 03:57 | 418871 | ||
| 46108_TS_DEWT_102013.nc | 06-Dec-2024 03:58 | 449909 | ||
| 46108_TS_DEWT_102015.nc | 06-Dec-2024 03:59 | 450579 | ||
| 46108_TS_DEWT_102016.nc | 06-Dec-2024 04:02 | 451809 | ||
| 46108_TS_DEWT_102017.nc | 06-Dec-2024 04:05 | 451090 | ||
| 46108_TS_DEWT_102018.nc | 06-Dec-2024 04:07 | 450798 | ||
| 46108_TS_DEWT_102019.nc | 06-Dec-2024 04:11 | 2802346 | ||
| 46108_TS_DEWT_102020.nc | 06-Dec-2024 04:11 | 423189 | ||
| 46108_TS_DEWT_102021.nc | 06-Dec-2024 04:13 | 429352 | ||
| 46108_TS_DEWT_102022.nc | 06-Dec-2024 04:15 | 427778 | ||
| 46108_TS_DEWT_102023.nc | 06-Dec-2024 04:20 | 428854 | ||
| 46108_TS_DEWT_112012.nc | 06-Dec-2024 03:57 | 429371 | ||
| 46108_TS_DEWT_112013.nc | 06-Dec-2024 03:58 | 429359 | ||
| 46108_TS_DEWT_112015.nc | 06-Dec-2024 04:00 | 429364 | ||
| 46108_TS_DEWT_112016.nc | 06-Dec-2024 04:03 | 429365 | ||
| 46108_TS_DEWT_112017.nc | 06-Dec-2024 04:05 | 429359 | ||
| 46108_TS_DEWT_112018.nc | 06-Dec-2024 04:07 | 429343 | ||
| 46108_TS_DEWT_112019.nc | 06-Dec-2024 04:11 | 429370 | ||
| 46108_TS_DEWT_112020.nc | 06-Dec-2024 04:11 | 429364 | ||
| 46108_TS_DEWT_112021.nc | 06-Dec-2024 04:14 | 429364 | ||
| 46108_TS_DEWT_112022.nc | 06-Dec-2024 04:16 | 429365 | ||
| 46108_TS_DEWT_112023.nc | 06-Dec-2024 04:20 | 429370 | ||
| 46108_TS_DEWT_122012.nc | 06-Dec-2024 03:57 | 429359 | ||
| 46108_TS_DEWT_122015.nc | 06-Dec-2024 04:00 | 429371 | ||
| 46108_TS_DEWT_122016.nc | 06-Dec-2024 04:03 | 449604 | ||
| 46108_TS_DEWT_122017.nc | 06-Dec-2024 04:05 | 437234 | ||
| 46108_TS_DEWT_122018.nc | 06-Dec-2024 04:08 | 449869 | ||
| 46108_TS_DEWT_122019.nc | 06-Dec-2024 04:11 | 448929 | ||
| 46108_TS_DEWT_122020.nc | 06-Dec-2024 04:12 | 451156 | ||
| 46108_TS_DEWT_122021.nc | 06-Dec-2024 04:14 | 449898 | ||
| 46108_TS_DEWT_122022.nc | 06-Dec-2024 04:16 | 450053 | ||
| 46108_TS_DEWT_122023.nc | 06-Dec-2024 04:20 | 450269 | ||